TVF96DA LFMT-LFPO

Flight info

Callsign TVF96DA
Flight time 0h 59m
Altitude 34000
Route NG DCT MOLEN DCT MTL DCT ETREK DCT MADOT DCT MOPEM DCT PIBAT
Aircraft B738/M-SDFGHIJ1RWY/LB1

Departure

Time 2026-05-07 08:31
Airport Montpellier-Méditerranée Airport (LFMT)

Arrival

Time 2026-05-07 09:31
Airport Paris-Orly Airport (LFPO)
Time Latitude Longitude Altitude Speed Heading
2026-05-07 07:53 43.57973 3.95944 19 ft 0 kts 206°
2026-05-07 08:23 43.57974 3.95944 19 ft 1 kts 206°
2026-05-07 08:23 43.57987 3.95953 19 ft 2 kts 206°
2026-05-07 08:23 43.58001 3.95962 19 ft 2 kts 206°
2026-05-07 08:24 43.58009 3.95968 19 ft 1 kts 206°
2026-05-07 08:24 43.58024 3.95973 19 ft 2 kts 171°
2026-05-07 08:24 43.58037 3.95966 19 ft 2 kts 141°
2026-05-07 08:24 43.58046 3.95951 19 ft 1 kts 110°
2026-05-07 08:25 43.58047 3.95943 20 ft 1 kts 102°
2026-05-07 08:25 43.58048 3.95939 20 ft 0 kts 104°
2026-05-07 08:27 43.58048 3.95940 20 ft 0 kts 104°
2026-05-07 08:27 43.58036 3.95984 19 ft 9 kts 117°
2026-05-07 08:27 43.57995 3.96070 18 ft 11 kts 124°
2026-05-07 08:27 43.57972 3.96175 18 ft 13 kts 77°
2026-05-07 08:28 43.58034 3.96279 18 ft 14 kts 74°
2026-05-07 08:28 43.57984 3.96414 17 ft 18 kts 125°
2026-05-07 08:28 43.57906 3.96581 16 ft 22 kts 124°
2026-05-07 08:28 43.57804 3.96774 16 ft 25 kts 125°
2026-05-07 08:29 43.57700 3.96982 15 ft 28 kts 124°
2026-05-07 08:29 43.57587 3.97207 15 ft 28 kts 124°
2026-05-07 08:29 43.57472 3.97437 14 ft 29 kts 125°
2026-05-07 08:29 43.57355 3.97667 14 ft 29 kts 125°
2026-05-07 08:30 43.57238 3.97894 14 ft 22 kts 124°
2026-05-07 08:30 43.57178 3.98058 13 ft 14 kts 86°
2026-05-07 08:30 43.57235 3.98163 13 ft 14 kts 34°
2026-05-07 08:30 43.57294 3.98188 13 ft 7 kts 321°
2026-05-07 08:31 43.57354 3.98072 13 ft 36 kts 305°
2026-05-07 08:31 43.57658 3.97467 15 ft 113 kts 304°
2026-05-07 08:31 43.58212 3.96362 163 ft 158 kts 306°
2026-05-07 08:31 43.58820 3.95176 1017 ft 151 kts 309°
2026-05-07 08:32 43.59445 3.94014 1742 ft 155 kts 309°
2026-05-07 08:32 43.60233 3.93114 2479 ft 152 kts 347°
2026-05-07 08:32 43.61233 3.93267 3221 ft 151 kts 26°
2026-05-07 08:32 43.62103 3.94168 3796 ft 166 kts 43°
2026-05-07 08:33 43.62919 3.95493 4174 ft 196 kts 58°
2026-05-07 08:33 43.63438 3.97239 4923 ft 206 kts 70°
2026-05-07 08:33 43.64078 3.99041 5617 ft 217 kts 54°
2026-05-07 08:33 43.65020 4.00761 6292 ft 232 kts 51°
2026-05-07 08:34 43.66024 4.02578 6917 ft 250 kts 52°
2026-05-07 08:34 43.67072 4.04569 7548 ft 266 kts 53°
2026-05-07 08:34 43.68167 4.06693 8265 ft 279 kts 54°
2026-05-07 08:34 43.69427 4.08741 9078 ft 286 kts 38°
2026-05-07 08:35 43.71118 4.10210 9998 ft 289 kts 26°
2026-05-07 08:35 43.72907 4.11425 10889 ft 293 kts 25°
2026-05-07 08:35 43.74748 4.12698 11790 ft 298 kts 26°
2026-05-07 08:35 43.76575 4.14057 12722 ft 302 kts 28°
2026-05-07 08:36 43.78421 4.15498 13384 ft 315 kts 28°
2026-05-07 08:36 43.80369 4.17052 14005 ft 330 kts 29°
2026-05-07 08:36 43.82394 4.18679 14758 ft 341 kts 28°
2026-05-07 08:36 43.84427 4.20312 15629 ft 347 kts 28°
2026-05-07 08:37 43.86544 4.22011 16495 ft 353 kts 28°
2026-05-07 08:37 43.88663 4.23711 17355 ft 358 kts 28°
2026-05-07 08:37 43.90816 4.25437 18179 ft 364 kts 28°
2026-05-07 08:37 43.93027 4.27210 19020 ft 369 kts 28°
2026-05-07 08:38 43.95258 4.29000 19873 ft 373 kts 27°
2026-05-07 08:38 43.97506 4.30805 20697 ft 377 kts 27°
2026-05-07 08:38 43.99786 4.32637 21487 ft 382 kts 27°
2026-05-07 08:38 44.02106 4.34503 22281 ft 386 kts 27°
2026-05-07 08:39 44.04422 4.36367 23017 ft 390 kts 27°
2026-05-07 08:39 44.06795 4.38280 23745 ft 395 kts 27°
2026-05-07 08:39 44.09170 4.40197 24440 ft 399 kts 27°
2026-05-07 08:39 44.11567 4.42133 25064 ft 404 kts 27°
2026-05-07 08:40 44.14044 4.44136 25711 ft 409 kts 27°
2026-05-07 08:40 44.16528 4.46146 26283 ft 414 kts 27°
2026-05-07 08:40 44.19014 4.48160 26924 ft 417 kts 27°
2026-05-07 08:40 44.21527 4.50197 27496 ft 421 kts 26°
2026-05-07 08:41 44.24103 4.52261 28065 ft 424 kts 24°
2026-05-07 08:41 44.26817 4.53906 28563 ft 424 kts 14°
2026-05-07 08:41 44.29690 4.54874 29136 ft 422 kts
2026-05-07 08:41 44.32620 4.55125 29735 ft 418 kts 353°
2026-05-07 08:42 44.35473 4.54814 30573 ft 410 kts 348°
2026-05-07 08:42 44.38262 4.54334 31239 ft 407 kts 347°
2026-05-07 08:42 44.41066 4.53885 31806 ft 408 kts 349°
2026-05-07 08:42 44.43921 4.53549 32363 ft 409 kts 350°
2026-05-07 08:43 44.46776 4.53340 32880 ft 411 kts 352°
2026-05-07 08:43 44.49598 4.53235 33461 ft 409 kts 353°
2026-05-07 08:43 44.52430 4.53196 33908 ft 410 kts 353°
2026-05-07 08:43 44.55335 4.53126 33978 ft 412 kts 351°
2026-05-07 08:44 44.60948 4.52576 33984 ft 404 kts 348°
2026-05-07 08:44 44.66588 4.51835 33981 ft 406 kts 348°
2026-05-07 08:45 44.72203 4.51115 33982 ft 406 kts 349°
2026-05-07 08:45 44.77793 4.50433 33985 ft 407 kts 349°
2026-05-07 08:46 44.83445 4.49763 33981 ft 406 kts 349°
2026-05-07 08:46 44.89079 4.49104 33983 ft 405 kts 349°
2026-05-07 08:47 44.94684 4.48446 33999 ft 405 kts 349°
2026-05-07 08:47 45.00301 4.47787 33988 ft 404 kts 349°
2026-05-07 08:48 45.05884 4.47130 33996 ft 404 kts 350°
2026-05-07 08:48 45.11480 4.46469 33992 ft 405 kts 350°
2026-05-07 08:49 45.17088 4.45808 33981 ft 404 kts 350°
2026-05-07 08:49 45.22693 4.45146 33987 ft 403 kts 350°
2026-05-07 08:50 45.28253 4.44486 33986 ft 402 kts 350°
2026-05-07 08:50 45.33839 4.43822 33992 ft 401 kts 350°
2026-05-07 08:51 45.39400 4.43160 34003 ft 402 kts 350°
2026-05-07 08:51 45.44944 4.42499 34015 ft 401 kts 350°
2026-05-07 08:52 45.50526 4.41831 34019 ft 403 kts 350°
2026-05-07 08:52 45.56108 4.41163 34023 ft 400 kts 350°
2026-05-07 08:53 45.61673 4.40496 34020 ft 400 kts 350°
2026-05-07 08:53 45.67184 4.39834 34015 ft 400 kts 350°
2026-05-07 08:54 45.72756 4.39162 34013 ft 399 kts 351°
2026-05-07 08:54 45.78235 4.38500 34010 ft 399 kts 351°
2026-05-07 08:55 45.83758 4.37833 34010 ft 399 kts 351°
2026-05-07 08:55 45.89318 4.37158 34009 ft 400 kts 351°
2026-05-07 08:56 45.94833 4.36490 34005 ft 398 kts 351°
2026-05-07 08:56 46.00332 4.35822 34005 ft 397 kts 351°
2026-05-07 08:57 46.05826 4.35151 34007 ft 398 kts 351°
2026-05-07 08:57 46.11075 4.34509 34006 ft 397 kts 351°
2026-05-07 08:58 46.16554 4.33839 34004 ft 397 kts 351°
2026-05-07 08:58 46.22060 4.33163 34006 ft 398 kts 351°
2026-05-07 08:59 46.27596 4.32483 34005 ft 397 kts 351°
2026-05-07 08:59 46.33084 4.31808 34009 ft 397 kts 351°
2026-05-07 09:00 46.38562 4.31134 34015 ft 396 kts 351°
2026-05-07 09:00 46.44075 4.30455 34017 ft 396 kts 352°
2026-05-07 09:01 46.49540 4.29781 34013 ft 395 kts 351°
2026-05-07 09:01 46.55034 4.29101 34014 ft 395 kts 351°
2026-05-07 09:02 46.60484 4.28425 34014 ft 396 kts 352°
2026-05-07 09:02 46.65994 4.27740 34012 ft 396 kts 352°
2026-05-07 09:03 46.71465 4.27058 34021 ft 397 kts 352°
2026-05-07 09:03 46.76965 4.26334 34022 ft 395 kts 350°
2026-05-07 09:04 46.82320 4.24783 34018 ft 393 kts 340°
2026-05-07 09:04 46.87429 4.22097 34013 ft 390 kts 335°
2026-05-07 09:05 46.92484 4.19098 34014 ft 390 kts 335°
2026-05-07 09:05 46.97484 4.16110 34017 ft 391 kts 335°
2026-05-07 09:06 47.00050 4.14585 33883 ft 404 kts 335°
2026-05-07 09:06 47.02707 4.13007 33663 ft 421 kts 335°
2026-05-07 09:06 47.05477 4.11367 33440 ft 434 kts 336°
2026-05-07 09:06 47.08282 4.09711 33210 ft 436 kts 336°
2026-05-07 09:07 47.11048 4.08082 32990 ft 435 kts 336°
2026-05-07 09:07 47.13831 4.06444 32773 ft 435 kts 336°
2026-05-07 09:07 47.16657 4.04779 32549 ft 436 kts 336°
2026-05-07 09:07 47.19434 4.03141 32320 ft 437 kts 336°
2026-05-07 09:08 47.22237 4.01484 31986 ft 437 kts 336°
2026-05-07 09:08 47.25062 3.99814 31309 ft 437 kts 336°
2026-05-07 09:08 47.27874 3.98148 30469 ft 438 kts 336°
2026-05-07 09:08 47.30700 3.96471 29598 ft 438 kts 336°
2026-05-07 09:09 47.33500 3.94807 28720 ft 438 kts 336°
2026-05-07 09:09 47.36285 3.93150 28140 ft 433 kts 336°
2026-05-07 09:09 47.39092 3.91478 28024 ft 439 kts 336°
2026-05-07 09:09 47.41970 3.89759 28021 ft 450 kts 336°
2026-05-07 09:10 47.47781 3.86284 28027 ft 451 kts 336°
2026-05-07 09:10 47.53593 3.82805 27673 ft 442 kts 337°
2026-05-07 09:11 47.56429 3.81105 26276 ft 452 kts 336°
2026-05-07 09:11 47.59330 3.79362 25356 ft 449 kts 337°
2026-05-07 09:11 47.62231 3.77618 24970 ft 443 kts 336°
2026-05-07 09:11 47.65075 3.75905 24402 ft 446 kts 336°
2026-05-07 09:12 47.67934 3.74182 23778 ft 438 kts 337°
2026-05-07 09:12 47.70714 3.72505 23157 ft 430 kts 337°
2026-05-07 09:12 47.73478 3.70835 22539 ft 425 kts 337°
2026-05-07 09:12 47.76215 3.69178 21933 ft 429 kts 337°
2026-05-07 09:13 47.78968 3.67509 21285 ft 425 kts 337°
2026-05-07 09:13 47.81697 3.65854 20659 ft 418 kts 337°
2026-05-07 09:13 47.84335 3.64251 20050 ft 411 kts 337°
2026-05-07 09:13 47.86982 3.62640 19434 ft 411 kts 337°
2026-05-07 09:14 47.89624 3.61030 18855 ft 412 kts 337°
2026-05-07 09:14 47.92231 3.59438 18305 ft 403 kts 337°
2026-05-07 09:14 47.94770 3.57737 17572 ft 400 kts 333°
2026-05-07 09:14 47.97149 3.55598 16896 ft 394 kts 323°
2026-05-07 09:15 47.99251 3.52989 16620 ft 395 kts 317°
2026-05-07 09:15 48.01225 3.50101 16367 ft 397 kts 314°
2026-05-07 09:15 48.03106 3.47145 16091 ft 393 kts 313°
2026-05-07 09:15 48.04962 3.44185 15701 ft 384 kts 314°
2026-05-07 09:16 48.07017 3.41628 15450 ft 390 kts 325°
2026-05-07 09:16 48.09333 3.39493 15198 ft 390 kts 330°
2026-05-07 09:16 48.11702 3.37595 14947 ft 388 kts 332°
2026-05-07 09:16 48.14105 3.35733 14693 ft 387 kts 332°
2026-05-07 09:17 48.16493 3.33848 14435 ft 386 kts 331°
2026-05-07 09:17 48.18837 3.31944 14178 ft 385 kts 330°
2026-05-07 09:17 48.21183 3.29988 13925 ft 384 kts 330°
2026-05-07 09:17 48.23517 3.28002 13671 ft 382 kts 329°
2026-05-07 09:18 48.25787 3.26048 13416 ft 380 kts 329°
2026-05-07 09:18 48.28102 3.24042 13084 ft 381 kts 329°
2026-05-07 09:18 48.30371 3.22072 12583 ft 378 kts 329°
2026-05-07 09:18 48.32620 3.20117 11993 ft 374 kts 329°
2026-05-07 09:19 48.34871 3.18160 11426 ft 369 kts 329°
2026-05-07 09:19 48.37073 3.16245 11059 ft 362 kts 329°
2026-05-07 09:19 48.39180 3.14413 10873 ft 345 kts 329°
2026-05-07 09:19 48.41231 3.12629 10739 ft 329 kts 329°
2026-05-07 09:20 48.43174 3.10936 10598 ft 319 kts 329°
2026-05-07 09:20 48.45079 3.09273 10451 ft 320 kts 329°
2026-05-07 09:20 48.47002 3.07592 10304 ft 320 kts 329°
2026-05-07 09:20 48.48931 3.05904 10108 ft 320 kts 329°
2026-05-07 09:21 48.50814 3.04256 10033 ft 303 kts 329°
2026-05-07 09:21 48.52573 3.02718 10019 ft 286 kts 329°
2026-05-07 09:21 48.54274 3.01231 9758 ft 280 kts 329°
2026-05-07 09:21 48.55954 2.99758 9280 ft 282 kts 329°
2026-05-07 09:22 48.57629 2.98288 8873 ft 281 kts 329°
2026-05-07 09:22 48.59313 2.96810 8411 ft 280 kts 329°
2026-05-07 09:22 48.60986 2.95339 7936 ft 278 kts 329°
2026-05-07 09:22 48.62664 2.93863 7460 ft 277 kts 329°
2026-05-07 09:23 48.64311 2.92411 7024 ft 274 kts 329°
2026-05-07 09:23 48.65951 2.90965 6587 ft 273 kts 330°
2026-05-07 09:23 48.67590 2.89522 6164 ft 272 kts 330°
2026-05-07 09:23 48.69209 2.88094 5755 ft 269 kts 330°
2026-05-07 09:24 48.70831 2.86663 5346 ft 267 kts 330°
2026-05-07 09:24 48.72419 2.85262 4979 ft 266 kts 330°
2026-05-07 09:24 48.74015 2.83850 4680 ft 261 kts 330°
2026-05-07 09:24 48.75516 2.82456 4586 ft 249 kts 325°
2026-05-07 09:25 48.76752 2.80675 4483 ft 239 kts 306°
2026-05-07 09:25 48.77561 2.78525 4290 ft 234 kts 297°
2026-05-07 09:25 48.78267 2.76312 4025 ft 232 kts 295°
2026-05-07 09:25 48.78682 2.73986 3828 ft 227 kts 274°
2026-05-07 09:26 48.78499 2.71679 3655 ft 220 kts 257°
2026-05-07 09:26 48.78098 2.69468 3495 ft 213 kts 255°
2026-05-07 09:26 48.77703 2.67390 3397 ft 201 kts 256°
2026-05-07 09:26 48.77337 2.65372 3272 ft 191 kts 256°
2026-05-07 09:27 48.76997 2.63486 3159 ft 182 kts 256°
2026-05-07 09:27 48.76673 2.61703 3090 ft 170 kts 256°
2026-05-07 09:27 48.76062 2.58341 2882 ft 165 kts 256°
2026-05-07 09:28 48.75756 2.56660 2631 ft 167 kts 256°
2026-05-07 09:28 48.75451 2.54987 2400 ft 167 kts 256°
2026-05-07 09:28 48.75147 2.53325 2189 ft 157 kts 256°
2026-05-07 09:28 48.74863 2.51772 1982 ft 149 kts 256°
2026-05-07 09:29 48.74593 2.50289 1718 ft 143 kts 256°
2026-05-07 09:29 48.74334 2.48842 1555 ft 142 kts 257°
2026-05-07 09:29 48.74073 2.47382 1364 ft 145 kts 255°
2026-05-07 09:29 48.73810 2.46025 1178 ft 144 kts 255°
2026-05-07 09:30 48.73548 2.44562 986 ft 140 kts 257°
2026-05-07 09:30 48.73284 2.43149 787 ft 141 kts 255°
2026-05-07 09:30 48.73023 2.41729 605 ft 140 kts 256°
2026-05-07 09:30 48.72758 2.40295 426 ft 139 kts 255°
2026-05-07 09:31 48.72535 2.39081 296 ft 135 kts 255°
2026-05-07 09:31 48.72335 2.37984 295 ft 77 kts 255°
2026-05-07 09:31 48.72210 2.37304 293 ft 46 kts 255°
2026-05-07 09:31 48.72171 2.37084 291 ft 17 kts 261°
2026-05-07 09:32 48.72178 2.36837 290 ft 25 kts 275°
2026-05-07 09:32 48.72189 2.36608 289 ft 15 kts 275°
2026-05-07 09:32 48.72223 2.36460 288 ft 14 kts 300°
2026-05-07 09:32 48.72275 2.36338 288 ft 13 kts 316°
2026-05-07 09:33 48.72349 2.36279 287 ft 11 kts 344°
2026-05-07 09:33 48.72432 2.36244 287 ft 12 kts 347°
2026-05-07 09:33 48.72504 2.36248 287 ft 10 kts 48°
2026-05-07 09:33 48.72530 2.36353 287 ft 11 kts 75°
2026-05-07 09:34 48.72551 2.36467 288 ft 11 kts 75°
2026-05-07 09:34 48.72574 2.36586 288 ft 12 kts 71°
2026-05-07 09:34 48.72606 2.36721 289 ft 14 kts 70°
2026-05-07 09:34 48.72641 2.36862 289 ft 14 kts 72°
2026-05-07 09:35 48.72665 2.37014 290 ft 14 kts 82°
2026-05-07 09:35 48.72689 2.37166 291 ft 15 kts 74°
2026-05-07 09:35 48.72718 2.37317 292 ft 14 kts 75°
2026-05-07 09:35 48.72742 2.37438 292 ft 8 kts 70°
2026-05-07 09:36 48.72760 2.37492 293 ft 2 kts 37°
2026-05-07 09:36 48.72780 2.37495 293 ft 4 kts 354°
2026-05-07 09:36 48.72807 2.37486 292 ft 3 kts 346°
2026-05-07 09:36 48.72830 2.37477 292 ft 2 kts 346°
2026-05-07 09:37 48.72831 2.37477 292 ft 0 kts 346°